Retour au catalogue

COSMOS 2251 DEB

ActifLEO
NORAD 35593·DEBRIS·🇷🇺 Russia

Lancé Jun 16, 1993 depuis Plesetsk Cosmodrome

Loading…

Prochains Passages (prochaines 24 heures)

TLE

FraisSource: Space-Track

Époque: Sep 14, 2026, 22:49 UTC

1 35593U 93036AML 26257.95126920  .00001527  00000-0  60696-3 0  9997
2 35593  74.0846 150.7979 0102686  88.9278 272.3633 14.26649841890030

Suivez COSMOS 2251 DEB en temps réel avec AllMySat

Download on the App Store